EW4650 Weather Reports


Display with metric or nautical units.
time (UTC)temp
F
wind
direction
speed
MPH
gust
MPH
rain 1hr
in
rain 24hr
in
rain mn
in
humidity
%
barometer
mb
20260506051029 73 117 6.0 12.0 0.00 0.00 0.00 95 1006.1
20260506050527 73 123 7.0 11.0 0.00 0.00 0.00 95 1006.2
20260506045027 73 167 7.0 13.0 0.00 0.00 0.00 93 1006.3
20260506044525 73 106 6.0 13.0 0.00 0.00 0.00 93 1006.3
20260506044025 73 127 8.0 13.0 0.00 0.00 0.00 92 1006.3
20260506043525 74 113 4.0 13.0 0.00 0.00 0.00 92 1006.3
20260506043026 74 113 6.0 14.0 0.00 0.00 0.00 91 1006.3
20260506042526 74 122 8.0 14.0 0.00 0.00 0.00 91 1006.2
20260506042026 74 136 6.0 10.0 0.00 0.00 0.00 90 1006.2
20260506041536 74 121 6.0 11.0 0.00 0.00 0.00 90 1006.2
20260506041025 74 148 5.0 10.0 0.00 0.00 0.00 89 1006.0
20260506040524 74 121 7.0 11.0 0.00 0.00 0.00 89 1005.9
20260506040024 74 132 6.0 11.0 0.00 0.00 0.00 89 1005.9
20260506035524 74 144 7.0 13.0 0.00 0.00 0.00 89 1005.9
20260506035023 74 147 9.0 12.0 0.00 0.00 0.00 89 1006.0
20260506034533 74 139 6.0 10.0 0.00 0.00 0.00 89 1005.8
20260506034028 74 138 6.0 11.0 0.00 0.00 0.00 89 1005.7
20260506033529 74 150 5.0 11.0 0.00 0.00 0.00 89 1005.7
20260506033023 74 147 4.0 8.0 0.00 0.00 0.00 89 1005.6
20260506032523 74 142 5.0 8.0 0.00 0.00 0.00 89 1005.6
20260506032023 74 89 3.0 7.0 0.00 0.00 0.00 88 1005.6
20260506031523 74 115 2.0 7.0 0.00 0.00 0.00 87 1005.5
20260506031024 74 119 2.0 9.0 0.00 0.00 0.00 87 1005.5
20260506030525 75 118 4.0 9.0 0.00 0.00 0.00 87 1005.4
20260506030026 74 131 4.0 8.0 0.00 0.00 0.00 87 1005.2
20260506025526 75 147 4.0 8.0 0.00 0.00 0.00 87 1005.2
20260506025021 75 172 3.0 8.0 0.00 0.00 0.00 86 1005.1
20260506024525 75 140 5.0 8.0 0.00 0.00 0.00 86 1005.1
20260506024022 75 161 4.0 11.0 0.00 0.00 0.00 86 1004.9
20260506023526 74 162 6.0 11.0 0.00 0.00 0.00 87 1004.9
20260506023021 74 165 4.0 8.0 0.00 0.00 0.00 87 1004.9
20260506022521 74 138 5.0 8.0 0.00 0.00 0.00 87 1005.0
20260506022020 74 150 4.0 7.0 0.00 0.00 0.00 87 1004.7
20260506021520 75 150 5.0 7.0 0.00 0.00 0.00 86 1004.7
20260506021020 75 196 1.0 3.0 0.00 0.00 0.00 86 1004.5
20260506020523 75 197 1.0 6.0 0.00 0.00 0.00 86 1004.5
20260506020020 75 186 2.0 6.0 0.00 0.00 0.00 85 1004.4
20260506015519 75 165 4.0 5.0 0.00 0.00 0.00 85 1004.3
20260506015022 76 188 3.0 6.0 0.00 0.00 0.00 84 1004.3
20260506014522 76 163 3.0 8.0 0.00 0.00 0.00 84 1004.3
20260506014019 76 164 4.0 8.0 0.00 0.00 0.00 84 1004.2
20260506013519 76 160 5.0 7.0 0.00 0.00 0.00 83 1004.2
20260506013035 77 169 5.0 8.0 0.00 0.00 0.00 83 1004.2
20260506012519 77 176 5.0 8.0 0.00 0.00 0.00 82 1004.1
20260506012019 78 165 4.0 8.0 0.00 0.00 0.00 82 1004.0
20260506011525 78 156 4.0 7.0 0.00 0.00 0.00 80 1003.9
20260506011018 78 146 2.0 7.0 0.00 0.00 0.00 79 1003.8
20260506010518 79 144 3.0 6.0 0.00 0.00 0.00 79 1003.8
20260506010021 79 155 3.0 7.0 0.00 0.00 0.00 78 1003.7
20260506005517 80 165 3.0 7.0 0.00 0.00 0.00 77 1003.7
20260506005017 80 153 3.0 7.0 0.00 0.00 0.00 77 1003.7
20260506004518 80 186 3.0 7.0 0.00 0.00 0.00 76 1003.8
20260506004017 81 163 3.0 7.0 0.00 0.00 0.00 75 1003.8
20260506003517 81 187 3.0 6.0 0.00 0.00 0.00 75 1003.8
20260506003016 81 147 1.0 6.0 0.00 0.00 0.00 75 1003.8
20260506002516 82 170 3.0 7.0 0.00 0.00 0.00 74 1003.8
20260506002016 82 154 4.0 7.0 0.00 0.00 0.00 74 1003.8
20260506001516 82 186 2.0 4.0 0.00 0.00 0.00 74 1003.9
20260506001016 82 186 2.0 5.0 0.00 0.00 0.00 74 1003.9
20260506000514 82 170 2.0 7.0 0.00 0.00 0.00 74 1003.9
20260506000014 82 207 3.0 7.0 0.00 0.00 0.00 73 1003.9
20260505235514 81 204 3.0 7.0 0.00 0.00 0.00 72 1003.8
20260505235017 81 189 2.0 6.0 0.00 0.00 0.00 72 1003.8
20260505234514 82 206 4.0 7.0 0.00 0.00 0.00 72 1003.9
20260505234014 82 207 3.0 8.0 0.00 0.00 0.00 71 1003.9
20260505233513 82 202 4.0 8.0 0.00 0.00 0.00 71 1003.8
20260505233021 82 217 4.0 9.0 0.00 0.00 0.00 72 1003.9
20260505232514 82 199 4.0 9.0 0.00 0.00 0.00 71 1003.8
20260505232013 82 250 3.0 11.0 0.00 0.00 0.00 71 1003.9
20260505231514 82 207 5.0 10.0 0.00 0.00 0.00 70 1003.8
20260505231014 83 186 6.0 11.0 0.00 0.00 0.00 70 1003.7
20260505230514 83 180 6.0 9.0 0.00 0.00 0.00 69 1003.8
20260505230012 83 220 5.0 9.0 0.00 0.00 0.00 69 1003.8
20260505225511 83 212 4.0 9.0 0.00 0.00 0.00 68 1003.7
20260505225011 83 201 3.0 9.0 0.00 0.00 0.00 69 1003.8
20260505224512 82 187 4.0 11.0 0.00 0.00 0.00 69 1003.9
20260505224010 82 201 5.0 11.0 0.00 0.00 0.00 69 1003.9
20260505223509 83 218 4.0 10.0 0.00 0.00 0.00 69 1003.9
20260505223008 83 202 6.0 12.0 0.00 0.00 0.00 69 1003.9
20260505222512 83 178 5.0 12.0 0.00 0.00 0.00 70 1004.0
20260505222008 83 215 7.0 10.0 0.00 0.00 0.00 68 1004.1
20260505221508 83 221 6.0 10.0 0.00 0.00 0.00 68 1004.0
20260505221010 83 228 4.0 10.0 0.00 0.00 0.00 69 1004.0
20260505220506 83 233 4.0 11.0 0.00 0.00 0.00 69 1004.1
20260505220015 83 196 6.0 11.0 0.00 0.00 0.00 70 1004.1
20260505215506 83 246 7.0 10.0 0.00 0.00 0.00 70 1004.3
20260505215005 83 180 7.0 10.0 0.00 0.00 0.00 71 1004.2
20260505214505 82 205 5.0 10.0 0.00 0.00 0.00 71 1004.2
20260505214004 82 257 5.0 10.0 0.00 0.00 0.00 71 1004.2
20260505213503 82 221 5.0 10.0 0.00 0.00 0.00 72 1004.3
20260505213003 82 245 5.0 11.0 0.00 0.00 0.00 71 1004.3
20260505212503 82 239 5.0 11.0 0.00 0.00 0.00 71 1004.5
20260505212003 83 236 7.0 11.0 0.00 0.00 0.00 69 1004.4
20260505211502 83 217 3.0 11.0 0.00 0.00 0.00 69 1004.5
20260505211001 82 226 7.0 11.0 0.00 0.00 0.00 71 1004.6
20260505210601 82 217 7.0 11.0 0.00 0.00 0.00 69 1004.5
20260505210107 82 163 6.0 10.0 0.00 0.00 0.00 73 1004.6
20260505205559 82 225 3.0 15.0 0.00 0.00 0.00 70 1004.7
20260505205058 82 227 9.0 16.0 0.00 0.00 0.00 70 1004.7
20260505204604 82 222 10.0 17.0 0.00 0.00 0.00 69 1004.9
20260505204056 82 228 11.0 16.0 0.00 0.00 0.00 71 1004.9
20260505203559 82 253 7.0 14.0 0.00 0.00 0.00 72 1005.0
20260505203107 82 245 7.0 14.0 0.00 0.00 0.00 72 1005.0
20260505202555 82 225 6.0 13.0 0.00 0.00 0.00 72 1005.0
20260505202056 82 194 7.0 14.0 0.00 0.00 0.00 71 1005.1
20260505201555 82 194 6.0 14.0 0.00 0.00 0.00 71 1005.1
20260505201057 82 213 6.0 13.0 0.00 0.00 0.00 73 1005.2
20260505200552 82 211 6.0 12.0 0.00 0.00 0.00 73 1005.3
20260505200101 81 194 6.0 12.0 0.00 0.00 0.00 72 1005.3
20260505195551 81 227 5.0 9.0 0.00 0.00 0.00 73 1005.4
20260505195050 81 214 3.0 8.0 0.00 0.00 0.00 73 1005.5
20260505194548 81 240 5.0 12.0 0.00 0.00 0.00 74 1005.5
20260505194046 80 190 7.0 11.0 0.00 0.00 0.00 76 1005.6
20260505193546 80 208 5.0 9.0 0.00 0.00 0.00 75 1005.7
20260505193058 80 145 5.0 13.0 0.00 0.00 0.00 74 1005.7
20260505192548 80 206 9.0 12.0 0.00 0.00 0.00 75 1005.7
20260505192043 80 213 3.0 10.0 0.00 0.00 0.00 77 1005.8
20260505191544 79 239 6.0 11.0 0.00 0.00 0.00 77 1006.0
20260505191042 79 190 7.0 11.0 0.00 0.00 0.00 78 1006.0
20260505190543 79 223 5.0 9.0 0.00 0.00 0.00 78 1006.0
20260505190044 79 184 6.0 13.0 0.00 0.00 0.00 80 1006.0
20260505185538 78 175 5.0 13.0 0.00 0.00 0.00 81 1006.1
20260505185038 78 196 6.0 13.0 0.00 0.00 0.00 81 1006.2
20260505184536 77 197 5.0 12.0 0.00 0.00 0.00 81 1006.2
20260505184035 77 249 7.0 12.0 0.00 0.00 0.00 82 1006.4
20260505183537 77 236 6.0 12.0 0.00 0.00 0.00 82 1006.5
20260505183037 76 234 5.0 9.0 0.00 0.00 0.00 83 1006.6
20260505182531 75 203 5.0 11.0 0.00 0.00 0.00 85 1006.6
20260505182031 75 225 7.0 11.0 0.00 0.00 0.00 85 1006.8
20260505181530 75 142 4.0 10.0 0.00 0.00 0.00 87 1006.9
20260505181029 74 207 4.0 10.0 0.00 0.00 0.00 89 1006.9
20260505180527 73 223 6.0 10.0 0.00 0.00 0.00 88 1006.9
20260505180025 73 267 4.0 10.0 0.00 0.00 0.00 92 1007.0
20260505175524 72 219 5.0 12.0 0.00 0.00 0.00 93 1007.0
20260505175023 72 246 8.0 12.0 0.00 0.00 0.00 96 1007.0
20260505174522 72 227 4.0 8.0 0.00 0.00 0.00 99 1007.0
20260505174021 71 198 2.0 8.0 0.00 0.00 0.00 100 1007.1
20260505173521 70 222 4.0 8.0 0.00 0.00 0.00 100 1007.1
20260505173018 69 257 5.0 8.0 0.00 0.00 0.00 100 1007.2
20260505172518 69 240 3.0 7.0 0.00 0.00 0.00 100 1007.2
20260505172022 68 238 4.0 8.0 0.00 0.00 0.00 100 1007.3
20260505171519 68 252 4.0 8.0 0.00 0.00 0.00 100 1007.3
20260505171021 68 250 3.0 8.0 0.00 0.00 0.00 100 1007.3
20260505170517 68 233 4.0 8.0 0.00 0.00 0.00 100 1007.2
20260505170017 68 232 6.0 10.0 0.00 0.00 0.00 100 1007.1
20260505165517 68 224 6.0 10.0 0.00 0.00 0.00 100 1007.1
20260505165019 68 249 5.0 10.0 0.00 0.00 0.00 100 1007.0
20260505164517 68 215 8.0 10.0 0.00 0.00 0.00 100 1007.1
20260505164017 67 210 6.0 11.0 0.00 0.00 0.00 100 1007.1
20260505163518 67 205 7.0 11.0 0.00 0.00 0.00 100 1007.0
20260505163018 67 213 5.0 8.0 0.00 0.00 0.00 100 1007.0
20260505162525 67 211 4.0 9.0 0.00 0.00 0.00 100 1007.1
20260505162015 67 187 4.0 9.0 0.00 0.00 0.00 100 1007.0
20260505161533 67 246 5.0 10.0 0.00 0.00 0.00 100 1006.9
20260505161015 67 209 5.0 10.0 0.00 0.00 0.00 100 1006.8
20260505160518 67 218 8.0 10.0 0.00 0.00 0.00 100 1006.7
20260505153014 66 215 6.0 13.0 0.00 0.00 0.00 100 1007.0
20260505152512 66 215 8.0 13.0 0.00 0.00 0.00 100 1007.0
20260505152012 66 217 6.0 11.0 0.00 0.00 0.00 100 1007.1
20260505151511 66 234 8.0 11.0 0.00 0.00 0.00 100 1006.9
20260505151012 66 219 7.0 15.0 0.00 0.00 0.00 100 1006.9
20260505150513 66 215 6.0 15.0 0.00 0.00 0.00 100 1006.9
20260505140507 65 211 10.0 19.0 0.00 0.00 0.00 99 1006.7
20260505125023 65 218 10.0 17.0 0.00 0.00 0.00 99 1006.4
20260505124523 65 227 8.0 17.0 0.00 0.00 0.00 99 1006.4
20260505124025 65 207 10.0 17.0 0.00 0.00 0.00 99 1006.3
20260505123522 65 209 9.0 19.0 0.00 0.00 0.00 99 1006.3
20260505123021 65 223 11.0 20.0 0.00 0.00 0.00 99 1006.1
20260505122520 65 224 10.0 18.0 0.00 0.00 0.00 99 1006.1
20260505122021 65 215 12.0 18.0 0.00 0.00 0.00 99 1006.0
20260505121530 65 219 11.0 18.0 0.00 0.00 0.00 99 1006.0
20260505121018 65 222 11.0 16.0 0.00 0.00 0.00 99 1005.8
20260505120519 65 212 7.0 17.0 0.00 0.00 0.00 99 1005.8
20260505120015 65 249 10.0 17.0 0.00 0.00 0.00 99 1005.8
20260505115515 65 232 9.0 19.0 0.00 0.00 0.00 99 1005.7
20260505115015 65 207 11.0 19.0 0.00 0.00 0.00 99 1005.5
20260505114515 65 184 9.0 18.0 0.00 0.00 0.00 99 1005.6
20260505114015 66 201 10.0 18.0 0.00 0.00 0.00 99 1005.6
20260505113514 66 191 10.0 16.0 0.00 0.00 0.00 99 1005.6
20260505113014 66 208 8.0 16.0 0.00 0.00 0.00 99 1005.5
20260505112514 66 216 9.0 16.0 0.00 0.00 0.00 99 1005.5
20260505112014 66 207 10.0 16.0 0.00 0.00 0.00 99 1005.5
20260505111513 66 217 9.0 15.0 0.00 0.00 0.00 98 1005.5
20260505111016 66 198 8.0 16.0 0.00 0.00 0.00 98 1005.5
20260505110516 66 213 8.0 15.0 0.00 0.00 0.00 98 1005.6
20260505102008 66 199 10.0 16.0 0.00 0.00 0.00 98 1005.6
20260505101510 66 209 10.0 15.0 0.00 0.00 0.00 98 1005.6
20260505101009 66 213 8.0 17.0 0.00 0.00 0.00 98 1005.6
20260505100508 66 207 11.0 17.0 0.00 0.00 0.00 98 1005.6
20260505100015 66 226 8.0 15.0 0.00 0.00 0.00 97 1005.6
20260505095508 66 225 10.0 19.0 0.00 0.00 0.00 97 1005.7
20260505095006 66 186 9.0 19.0 0.00 0.00 0.00 97 1005.7
20260505094505 66 211 9.0 19.0 0.00 0.00 0.00 97 1005.7
20260505094009 66 226 11.0 19.0 0.00 0.00 0.00 97 1005.7
20260505093505 66 192 10.0 17.0 0.00 0.00 0.00 97 1005.8
20260505093004 66 203 11.0 18.0 0.00 0.00 0.00 97 1005.8
20260505092504 66 205 11.0 19.0 0.00 0.00 0.00 97 1005.9
20260505092004 66 192 12.0 16.0 0.00 0.00 0.00 97 1005.9
20260505091504 66 205 9.0 16.0 0.00 0.00 0.00 97 1006.0
20260505091006 66 203 9.0 16.0 0.00 0.00 0.00 97 1006.0
20260505090503 66 211 10.0 16.0 0.00 0.00 0.00 97 1005.9
20260505090002 66 200 10.0 19.0 0.00 0.00 0.00 97 1006.0
20260505085502 66 202 9.0 20.0 0.00 0.00 0.00 97 1006.0
20260505085003 66 200 12.0 21.0 0.00 0.00 0.00 97 1005.8
20260505084501 66 212 10.0 16.0 0.00 0.00 0.00 97 1006.0
20260505084100 66 213 9.0 15.0 0.00 0.00 0.00 97 1006.1
20260505083559 66 234 7.0 15.0 0.00 0.00 0.00 96 1006.1
20260505083107 66 182 9.0 16.0 0.00 0.00 0.00 96 1006.2
20260505082558 66 202 11.0 16.0 0.00 0.00 0.00 96 1006.2
20260505082057 66 211 10.0 15.0 0.00 0.00 0.00 96 1006.2
20260505081600 66 191 9.0 19.0 0.00 0.00 0.00 96 1006.2
20260505081056 66 192 7.0 16.0 0.00 0.00 0.00 96 1006.2
20260505080557 66 195 10.0 16.0 0.00 0.00 0.00 96 1006.2
20260505080054 66 216 10.0 16.0 0.00 0.00 0.00 96 1006.4
20260505075554 66 215 8.0 13.0 0.00 0.00 0.00 95 1006.5
20260505075054 66 204 7.0 14.0 0.00 0.00 0.00 95 1006.6
20260505074550 66 207 9.0 14.0 0.00 0.00 0.00 95 1006.6
20260505074052 66 205 7.0 13.0 0.00 0.00 0.00 95 1006.7
20260505073548 66 200 7.0 14.0 0.00 0.00 0.00 95 1006.7
20260505073047 66 199 7.0 13.0 0.00 0.00 0.00 94 1006.8
20260505072545 66 213 6.0 14.0 0.00 0.00 0.00 94 1006.8
20260505072044 66 197 8.0 14.0 0.00 0.00 0.00 94 1006.9
20260505071548 66 198 7.0 13.0 0.00 0.00 0.00 93 1006.9
20260505071044 66 177 8.0 14.0 0.00 0.00 0.00 93 1007.0
20260505070542 66 195 8.0 14.0 0.00 0.00 0.00 93 1007.0
20260505070041 67 214 7.0 12.0 0.00 0.00 0.00 92 1007.1
20260505065540 67 205 8.0 12.0 0.00 0.00 0.00 92 1007.1
20260505065038 67 217 7.0 15.0 0.00 0.00 0.00 91 1007.3
20260505064540 67 175 9.0 17.0 0.00 0.00 0.00 90 1007.3
20260505064038 67 193 8.0 14.0 0.00 0.00 0.00 90 1007.3
20260505063536 67 198 7.0 12.0 0.00 0.00 0.00 88 1007.5
20260505063038 68 202 7.0 11.0 0.00 0.00 0.00 88 1007.5
20260505062538 68 206 6.0 16.0 0.00 0.00 0.00 87 1007.5
20260505062035 68 192 9.0 16.0 0.00 0.00 0.00 87 1007.5
20260505061536 68 207 10.0 19.0 0.00 0.00 0.00 87 1007.5
20260505061032 68 211 10.0 19.0 0.00 0.00 0.00 87 1007.6
20260505060531 68 200 13.0 19.0 0.00 0.00 0.00 86 1007.7
20260505060036 69 197 11.0 17.0 0.00 0.00 0.00 86 1007.7
20260505055529 69 210 10.0 20.0 0.00 0.00 0.00 86 1007.7
20260505055029 69 212 11.0 20.0 0.00 0.00 0.00 86 1007.8
20260505054528 69 192 11.0 18.0 0.00 0.00 0.00 85 1007.9
20260505054027 69 192 11.0 19.0 0.00 0.00 0.00 85 1007.6
20260505053530 69 211 12.0 24.0 0.00 0.00 0.00 85 1007.7
20260505053028 69 184 13.0 24.0 0.00 0.00 0.00 85 1007.6